Weather History for Howell, MI

Change the Weather History Date:

Monday, January 9, 2012

  Actual Average Record
Temperature  
Mean Temperature 34 °F -  
Max Temperature 42 °F 30 °F 50 °F (2008)
Min Temperature 27 °F 17 °F 0 °F (2001)
Degree Days  
Heating Degree Days 30    
Moisture  
Dew Point 25 °F    
Average Humidity 71    
Maximum Humidity 90    
Minimum Humidity 44    
Precipitation  
Precipitation 0.00 in - - ()
Sea Level Pressure  
Sea Level Pressure 30.05 in    
Wind  
Wind Speed 7 mph (SW)    
Max Wind Speed 17 mph    
Max Gust Speed 23 mph    
Visibility 10 miles    
Events      
Averages and records for this station are not official NWS values.
T = Trace of Precipitation, MM = Missing Value Source: NWS Daily Summary

Daily Weather History Graph

Daily Weather History Graph

Search for Another Location

Airport:

Trip Planner

Search our weather history database for the weather conditions in past years. The results will help you decide how hot, cold, wet, or windy it might be!

Date:

Astronomy

Jan. 09, 2012 Rise Set
Actual Time 8:05 AM EST 5:20 PM EST
Civil Twilight 7:33 AM EST 5:52 PM EST
Nautical Twilight 6:58 AM EST 6:27 PM EST
Astronomical Twilight 6:24 AM EST 7:01 PM EST
Moon 6:07 PM EST (1/9) 8:04 AM EST (1/9)
Length of Visible Light 10h 18m
Length of Day
9h 14m
Full, 100% of the Moon is Illuminated
Jan 9
Full
Jan 16
Last Quarter
Jan 23
New
Jan 30
First Quarter
Feb 7
Full

Hourly Weather History & Observations

Time (EST) Temp. Windchill Dew Point Humidity Pressure Visibility Wind Dir Wind Speed Gust Speed Precip Events Conditions
12:15 AM 30.0 °F 26.5 °F 22.8 °F 75% 30.25 in 10.0 mi SSW 3.5 mph - N/A   Clear
12:34 AM 29.7 °F 26.1 °F 22.8 °F 76% 30.24 in 10.0 mi SSW 3.5 mph - N/A   Clear
12:55 AM 29.8 °F 26.3 °F 23.0 °F 76% 30.23 in 10.0 mi SSW 3.5 mph - N/A   Clear
1:15 AM 29.1 °F 25.4 °F 22.8 °F 77% 30.23 in 10.0 mi SSW 3.5 mph - N/A   Clear
1:35 AM 28.9 °F 25.2 °F 23.0 °F 78% 30.22 in 10.0 mi SSW 3.5 mph - N/A   Clear
2:14 AM 28.8 °F 23.7 °F 23.0 °F 79% 30.22 in 10.0 mi SSW 4.6 mph - N/A   Clear
2:35 AM 28.6 °F 23.5 °F 23.2 °F 80% 30.21 in 10.0 mi SSW 4.6 mph - N/A   Clear
2:55 AM 28.4 °F 23.3 °F 23.4 °F 81% 30.21 in 10.0 mi SSW 4.6 mph - N/A   Clear
3:15 AM 28.4 °F 23.3 °F 23.5 °F 82% 30.20 in 10.0 mi SSW 4.6 mph - N/A   Clear
3:35 AM 28.0 °F 22.8 °F 23.5 °F 83% 30.20 in 10.0 mi SSW 4.6 mph - N/A   Clear
3:54 AM 28.4 °F 23.3 °F 23.5 °F 82% 30.19 in 10.0 mi SSW 4.6 mph - N/A   Clear
4:15 AM 27.5 °F 22.2 °F 23.5 °F 85% 30.18 in 10.0 mi SSW 4.6 mph - N/A   Clear
4:35 AM 28.2 °F 23.1 °F 23.9 °F 84% 30.17 in 10.0 mi SSW 4.6 mph - N/A   Clear
4:54 AM 27.7 °F 22.4 °F 23.7 °F 85% 30.17 in 10.0 mi SSW 4.6 mph - N/A   Clear
5:15 AM 27.5 °F 23.6 °F 23.9 °F 86% 30.17 in 10.0 mi SSW 3.5 mph - N/A   Clear
5:35 AM 27.9 °F 24.0 °F 24.1 °F 86% 30.17 in 10.0 mi SSW 3.5 mph - N/A   Clear
5:54 AM 27.5 °F 23.6 °F 24.1 °F 87% 30.17 in 10.0 mi SSW 3.5 mph - N/A   Clear
6:35 AM 27.5 °F 22.2 °F 24.3 °F 88% 30.16 in 10.0 mi SSW 4.6 mph - N/A   Clear
6:54 AM 27.5 °F 22.2 °F 24.8 °F 90% 30.15 in 10.0 mi SSW 4.6 mph - N/A   Clear
7:15 AM 27.9 °F 22.6 °F 24.8 °F 88% 30.14 in 10.0 mi SSW 4.6 mph - N/A   Clear
7:35 AM 28.4 °F 22.2 °F 25.3 °F 88% 30.13 in 10.0 mi SSW 5.8 mph - N/A   Clear
7:55 AM 28.2 °F 23.1 °F 25.0 °F 88% 30.13 in 10.0 mi SSW 4.6 mph - N/A   Clear
8:15 AM 28.4 °F 23.3 °F 25.2 °F 88% 30.13 in 10.0 mi SSW 4.6 mph - N/A   Clear
8:35 AM 29.8 °F 23.9 °F 26.2 °F 86% 30.13 in 10.0 mi SW 5.8 mph - N/A   Clear
8:55 AM 30.9 °F 24.3 °F 26.6 °F 84% 30.13 in 10.0 mi SW 6.9 mph - N/A   Clear
9:15 AM 31.1 °F 24.5 °F 26.6 °F 83% 30.12 in 10.0 mi SW 6.9 mph - N/A   Clear
9:34 AM 32.2 °F 25.8 °F 27.5 °F 83% 30.12 in 10.0 mi SW 6.9 mph - N/A   Clear
9:55 AM 33.8 °F 26.4 °F 27.9 °F 79% 30.11 in 10.0 mi SW 9.2 mph - N/A   Clear
10:15 AM 34.7 °F 26.9 °F 28.2 °F 77% 30.10 in 10.0 mi SW 10.4 mph - N/A   Clear
10:34 AM 35.1 °F 27.4 °F 28.2 °F 76% 30.09 in 10.0 mi SW 10.4 mph - N/A   Clear
11:15 AM 36.0 °F 28.0 °F 28.4 °F 74% 30.08 in 10.0 mi SW 11.5 mph 18.4 mph N/A   Clear
11:34 AM 36.5 °F 28.7 °F 28.8 °F 74% 30.07 in 10.0 mi SW 11.5 mph - N/A   Mostly Cloudy
11:55 AM 36.5 °F 28.7 °F 28.0 °F 71% 30.05 in 10.0 mi SW 11.5 mph 16.1 mph N/A   Overcast
12:14 PM 36.9 °F 28.7 °F 27.9 °F 70% 30.03 in 10.0 mi SW 12.7 mph 16.1 mph N/A   Overcast
12:35 PM 37.9 °F 30.0 °F 28.0 °F 68% 30.01 in 10.0 mi SSW 12.7 mph - N/A   Overcast
1:15 PM 38.5 °F 32.1 °F 27.0 °F 63% 29.97 in 10.0 mi SW 9.2 mph - N/A   Overcast
1:35 PM 39.2 °F 31.6 °F 26.6 °F 61% 29.95 in 10.0 mi SW 12.7 mph 20.7 mph N/A   Overcast
1:55 PM 40.1 °F 32.0 °F 25.9 °F 57% 29.95 in 10.0 mi SW 15.0 mph 19.6 mph N/A   Overcast
2:14 PM 41.0 °F 33.5 °F 25.3 °F 54% 29.94 in 10.0 mi SW 13.8 mph 19.6 mph N/A   Mostly Cloudy
2:35 PM 40.1 °F 31.3 °F 24.6 °F 54% 29.93 in 10.0 mi WSW 17.3 mph 20.7 mph N/A   Overcast
3:35 PM 41.0 °F 33.9 °F 23.5 °F 50% 29.91 in 10.0 mi SW 12.7 mph 18.4 mph N/A   Clear
3:55 PM 42.3 °F 34.4 °F 21.7 °F 44% 29.90 in 10.0 mi SW 16.1 mph 20.7 mph N/A   Clear
4:14 PM 41.7 °F 33.7 °F 22.1 °F 46% 29.89 in 10.0 mi SW 16.1 mph 23.0 mph N/A   Clear
4:35 PM 40.8 °F 34.5 °F 22.1 °F 47% 29.89 in 10.0 mi SW 10.4 mph 20.7 mph N/A   Scattered Clouds
4:55 PM 40.6 °F 34.3 °F 22.5 °F 48% 29.88 in 10.0 mi SW 10.4 mph 18.4 mph N/A   Mostly Cloudy
5:15 PM 39.7 °F 32.7 °F 22.8 °F 51% 29.88 in 10.0 mi SW 11.5 mph 18.4 mph N/A   Scattered Clouds
5:35 PM 39.0 °F 31.4 °F 23.0 °F 53% 29.87 in 10.0 mi SW 12.7 mph 18.4 mph N/A   Clear
5:54 PM 38.5 °F 32.7 °F 23.0 °F 54% 29.87 in 10.0 mi SW 8.1 mph - N/A   Clear
6:15 PM 37.9 °F 30.0 °F 23.2 °F 55% 29.87 in 10.0 mi SW 12.7 mph 18.4 mph N/A   Clear
6:34 PM 37.6 °F 31.0 °F 23.5 °F 57% 29.88 in 10.0 mi SW 9.2 mph 18.4 mph N/A   Clear
6:55 PM 37.2 °F 29.6 °F 23.5 °F 58% 29.88 in 10.0 mi SW 11.5 mph - N/A   Clear
7:15 PM 36.5 °F 29.7 °F 23.7 °F 60% 29.88 in 10.0 mi SW 9.2 mph - N/A   Clear
7:34 PM 36.1 °F 29.3 °F 23.9 °F 61% 29.88 in 10.0 mi SW 9.2 mph - N/A   Clear
7:55 PM 35.8 °F 28.8 °F 23.9 °F 62% 29.88 in 10.0 mi SW 9.2 mph - N/A   Clear
8:14 PM 35.6 °F 28.6 °F 24.3 °F 63% 29.88 in 10.0 mi WSW 9.2 mph - N/A   Clear
8:35 PM 35.8 °F 28.8 °F 24.6 °F 64% 29.88 in 10.0 mi WSW 9.2 mph - N/A   Clear
8:55 PM 36.3 °F 28.9 °F 24.8 °F 63% 29.88 in 10.0 mi WSW 10.4 mph 17.3 mph N/A   Clear
9:15 PM 36.5 °F 28.7 °F 25.5 °F 64% 29.88 in 10.0 mi WSW 11.5 mph 17.3 mph N/A   Clear
9:35 PM 36.5 °F 28.2 °F 26.1 °F 66% 29.88 in 10.0 mi WSW 12.7 mph - N/A   Clear
9:55 PM 36.7 °F 28.0 °F 26.4 °F 66% 29.88 in 10.0 mi WSW 13.8 mph 18.4 mph N/A   Clear
10:14 PM 36.9 °F 28.2 °F 27.0 °F 67% 29.88 in 10.0 mi WSW 13.8 mph 17.3 mph N/A   Clear
10:35 PM 36.7 °F 28.4 °F 27.3 °F 69% 29.89 in 10.0 mi West 12.7 mph - N/A   Clear
10:55 PM 36.3 °F 27.5 °F 27.5 °F 70% 29.88 in 10.0 mi WSW 13.8 mph 18.4 mph N/A   Clear
11:14 PM 35.8 °F 28.3 °F 27.9 °F 73% 29.88 in 10.0 mi WSW 10.4 mph - N/A   Clear
11:35 PM 35.6 °F 27.5 °F 28.4 °F 75% 29.89 in 10.0 mi WSW 11.5 mph - N/A   Clear
11:55 PM 35.6 °F 28.0 °F 28.8 °F 76% 29.89 in 10.0 mi WSW 10.4 mph - N/A   Clear